Starlink 34849

operational
NORAD ID: 66005 Int'l Des: 2025-232 Owner: SPXS Country: US Constellation: starlink
LEOCIRCULAR

About Starlink 34849

Description loading...

Live Position

Loading 3D Globe...

Upcoming Passes

Altitude History

Altitude vs Time

uPlot chart will show altitude changes over time

Two-Line Element Set

1 66005C 25232A 25290.41090278 .00925060 00000+0 12986-2 0 2903
2 66005 53.1576 58.9197 0008822 285.3944 206.5906 16.04069595 14
Epoch: Oct 17, 2025 • Age: 61 hours

Current Status

Altitude 256.6 km
Velocity 7.75 km/s
Sub-Earth Point 24.79°N, 11.07°W
Launch Date Oct 16, 2025
Age 3 days
Type internet

Technical Details

Classification Payload
Mass 575.00 kg
Dry Mass 530.00 kg
Total Mass 575.00 kg
Length 0.30 m
Diameter 4.10 m
Span 29.00 m
Shape Box + pan
Manufacturer SPXS
Bus Type Starlink V2MO
Phase Status In Orbit
Owner/State SPXS/US

Large Constellations

Loading constellations...